Find Starlink 34259

NORAD ID: 65368 Int'l Des: 2025-190 Owner: SPXS Country: US Constellation: starlink operational
LEOCIRCULAR

实时位置

正在加载3D地球...

关于 Starlink 34259

正在加载描述...

即将过境

Passes for default location (London). Set your location on the main map for personalized predictions.

高度历史

Loading altitude history...

两行轨道根数

1 65368U 25190T 26104.93971296 .00009116 00000-0 31951-3 0 9993
2 65368 53.1600 359.9154 0001276 97.9280 262.1865 15.30200792 35302
Epoch: Apr 14, 2026 • Age: 14 hours

当前状态

高度 480.8 km
速度 7.63 km/s
星下点 52.69°N, 35.97°E
发射日期 Aug 28, 2025
运行时间 0.6 years
类型 internet

技术详情

分类 Payload
质量 575.00 kg
干质量 530.00 kg
总质量 575.00 kg
长度 0.30 m
直径 4.10 m
跨度 29.00 m
形状 Box + pan
制造商 SPXS
平台类型 Starlink V2MO
阶段状态 In Orbit
所有者/国家 SPXS/US

Most Searched